ENVIRONMENTAL PROTECTION DEPARTMENT
HONG KONG SPECIAL ADMINISTRATIVE REGION CHINA

Daily Summary (01 January 2007 - 31 December 2007)
Note:,1. The EPD has been reporting API for individual stations on an hourly basis since 1 July 1999.
,2. Empty cells mean that API data are not available for that period.
,3.The API information is based on raw data taken directly from EPD's Air Quality Monitoring Network.

,Roadside API,,,,,,,,,General API
,Causeway Bay,,,Central,,,Mong Kok,,,Central/Western,,,Eastern,,,Kwai Chung,,,Kwun Tong,,,Sha Tin,,,Sham Shui Po,,,Tai Po,,,Tap Mun,,,Tsuen Wan,,,Tung Chung,,,Yuen Long
Date,Average,Maximum,Minimum,Average,Maximum,Minimum,Average,Maximum,Minimum,Average,Maximum,Minimum,Average,Maximum,Minimum,Average,Maximum,Minimum,Average,Maximum,Minimum,Average,Maximum,Minimum,Average,Maximum,Minimum,Average,Maximum,Minimum,Average,Maximum,Minimum,Average,Maximum,Minimum,Average,Maximum,Minimum,Average,Maximum,Minimum
2007-01-01,67,74,61,53,56,51,77,85,71,32,37,25,34,36,32,36,43,30,35,39,32,,,,40,43,37,41,42,41,43,49,36,41,43,38,35,39,31,45,53,39
2007-01-02,68,71,62,62,64,58,76,77,75,37,38,33,38,39,37,,,,40,41,38,,,,50,51,48,38,40,36,38,42,34,44,45,43,38,40,36,43,44,42
2007-01-03,58,60,56,67,70,63,72,75,65,34,43,32,40,42,38,48,59,39,40,46,39,,,,47,51,46,44,56,36,46,53,40,46,57,41,40,57,31,49,64,41
2007-01-04,67,69,60,69,80,64,62,67,59,58,62,46,53,56,41,63,66,60,55,58,49,,,,56,58,52,59,63,54,52,56,46,61,64,56,64,67,59,65,68,58
2007-01-05,73,82,67,89,99,81,71,75,68,55,60,52,46,52,45,55,59,54,48,53,46,,,,49,54,45,51,55,47,43,47,39,51,56,47,59,61,57,58,66,55
2007-01-06,75,81,64,92,98,78,73,77,64,57,59,55,48,53,45,56,57,55,52,54,50,,,,56,57,54,56,58,55,52,59,46,58,60,56,62,63,61,70,73,66
2007-01-07,72,75,66,79,83,77,69,77,63,65,69,57,61,64,54,65,67,58,63,66,55,,,,64,69,56,64,68,57,66,69,59,66,69,60,70,72,64,77,81,70
2007-01-08,79,80,76,92,100,84,81,83,78,66,68,63,60,63,57,63,66,62,62,65,60,,,,64,69,60,62,67,59,62,68,59,64,68,62,66,71,62,73,80,68
2007-01-09,81,87,79,101,111,97,88,101,82,64,70,62,58,62,57,63,68,61,62,66,60,,,,63,74,60,62,71,58,60,62,58,63,69,62,64,67,62,72,82,69
2007-01-10,95,99,88,113,119,96,105,111,95,75,81,67,66,71,62,71,74,69,67,69,66,,,,77,83,68,75,79,68,64,67,62,77,82,69,74,80,68,85,88,77
2007-01-11,70,85,63,74,91,64,85,93,77,58,66,52,61,66,55,65,71,58,59,65,53,,,,60,67,54,62,68,57,65,67,59,63,72,56,69,79,58,61,76,39
2007-01-12,74,92,63,79,94,67,81,88,77,58,69,52,58,64,54,63,72,57,58,67,53,,,,60,70,54,58,63,56,58,61,56,62,71,55,67,76,58,63,79,39
2007-01-13,87,92,76,93,98,81,81,86,77,73,77,68,68,70,64,75,77,73,70,74,66,,,,72,75,68,69,71,63,69,72,62,75,77,71,81,86,77,84,86,80
2007-01-14,72,76,69,70,80,63,80,82,75,62,67,59,62,65,60,68,73,64,62,65,60,,,,65,68,63,65,68,64,65,68,63,71,77,64,77,83,70,79,84,73
2007-01-15,70,73,67,63,68,59,74,75,73,55,60,51,55,60,50,59,64,54,55,60,51,,,,58,63,54,58,64,52,57,64,54,60,64,54,64,71,55,65,74,55
2007-01-16,69,71,66,75,77,70,79,82,75,46,51,41,46,51,44,50,54,45,47,51,45,,,,59,62,55,50,52,47,52,55,49,52,54,50,59,78,54,56,57,53
2007-01-17,69,74,64,81,86,75,74,79,62,44,49,39,48,51,45,51,53,47,50,98,45,,,,58,63,46,52,56,48,51,53,48,52,57,44,60,66,52,57,59,55
2007-01-18,69,75,64,70,78,65,54,61,49,45,46,43,41,45,37,50,51,48,41,46,37,,,,41,45,39,47,50,43,49,52,46,43,50,39,55,57,55,59,60,58
2007-01-19,69,75,66,78,89,72,64,75,56,51,59,46,46,51,40,54,62,50,44,51,39,,,,51,65,44,52,54,50,50,53,46,54,62,50,57,65,54,62,70,58
2007-01-20,75,79,69,91,96,88,80,85,73,61,64,57,56,58,52,65,68,60,55,58,51,,,,63,67,59,57,58,55,57,60,53,65,68,60,67,71,59,71,74,67
2007-01-21,66,69,61,59,62,56,62,72,54,55,58,51,55,58,49,58,61,53,54,58,47,,,,56,60,50,56,58,51,54,60,39,58,60,53,60,63,57,65,67,57
2007-01-22,55,59,52,52,56,48,52,64,46,38,51,30,36,48,31,39,52,30,35,45,30,,,,38,48,33,36,50,29,29,37,23,39,52,31,50,59,37,50,56,46
2007-01-23,66,73,56,68,75,58,67,69,65,42,53,31,40,50,34,42,52,32,42,52,35,,,,46,51,42,36,43,31,38,41,32,43,53,36,66,73,56,63,67,57
2007-01-24,72,75,70,74,77,71,64,69,62,50,53,46,43,48,39,47,51,42,49,52,44,,,,47,51,43,47,54,41,34,41,31,49,52,44,55,64,51,56,62,54
2007-01-25,83,100,75,85,96,78,78,90,70,59,71,52,51,59,41,57,66,48,54,61,47,,,,57,69,48,58,68,50,53,62,42,57,67,50,61,70,54,66,75,58
2007-01-26,106,114,100,104,108,97,95,97,91,73,75,70,62,67,60,70,73,66,66,74,62,71,75,66,73,77,67,73,76,69,69,72,64,69,71,67,74,76,70,82,85,76
2007-01-27,95,102,87,94,100,91,84,91,78,66,70,63,61,63,59,70,73,66,63,65,60,67,72,63,63,67,61,66,72,63,61,65,60,70,71,64,70,73,68,71,78,69
2007-01-28,86,91,81,93,95,89,82,85,81,67,71,63,63,68,59,68,71,65,64,69,60,67,73,63,66,71,61,65,70,63,66,71,62,67,72,64,70,71,68,74,78,70
2007-01-29,85,88,80,96,101,91,84,91,81,74,75,72,71,72,68,74,75,71,71,73,69,74,76,69,74,75,72,69,72,63,72,74,68,73,74,70,71,74,67,77,81,72
2007-01-30,97,115,88,113,132,102,106,115,92,72,76,70,68,69,65,74,77,72,71,78,68,67,69,65,84,95,72,69,91,62,64,73,62,75,88,69,71,84,64,77,94,69
2007-01-31,117,123,104,128,138,112,125,130,117,76,85,63,67,71,60,82,91,74,81,86,75,75,82,67,102,108,97,90,101,70,60,62,58,90,99,79,87,97,74,97,114,80
2007-02-01,107,111,103,116,124,111,114,124,105,69,75,61,65,71,60,77,80,73,71,75,67,69,77,64,85,98,79,69,74,65,65,74,58,79,83,76,77,82,73,79,85,74
2007-02-02,97,108,91,112,120,107,94,102,91,70,75,64,67,71,61,70,78,64,67,72,62,72,77,64,72,79,65,66,73,60,72,76,67,63,76,50,73,81,67,77,85,70
2007-02-03,89,92,86,102,111,94,102,105,97,65,66,64,63,63,62,66,67,65,65,66,63,64,65,63,67,68,66,63,66,61,65,67,62,66,69,62,65,67,63,70,72,68
2007-02-04,95,99,87,99,104,89,109,112,105,62,64,57,60,62,57,62,65,57,64,66,58,61,64,56,79,82,70,60,62,56,60,65,55,69,74,57,59,62,54,64,68,59
2007-02-05,81,86,78,87,98,80,100,105,96,52,56,51,55,57,53,54,57,51,56,61,53,52,55,50,75,78,74,52,56,50,54,60,51,59,71,55,52,54,50,55,59,53
2007-02-06,85,91,78,100,104,92,100,104,95,54,56,50,59,60,53,58,62,50,64,68,58,50,53,42,79,82,72,53,60,50,51,56,46,67,71,54,56,63,52,58,60,54
2007-02-07,65,76,60,83,90,78,82,93,77,42,49,39,49,52,48,44,49,40,51,58,49,39,42,37,60,70,56,48,53,43,45,59,37,52,56,47,44,51,32,47,54,39
2007-02-08,67,69,63,84,87,80,80,82,78,43,48,40,51,51,50,42,44,40,51,53,50,39,41,38,59,62,57,44,46,43,37,49,32,48,49,47,38,55,30,41,44,38
2007-02-09,66,69,64,91,97,87,82,86,78,53,56,46,52,53,51,44,49,42,58,61,53,44,53,39,66,70,62,46,54,41,32,39,27,50,54,47,48,54,39,39,45,35
2007-02-10,65,69,62,93,99,84,71,77,67,53,58,50,47,51,44,51,55,50,57,60,53,50,52,47,56,62,51,51,53,50,30,41,26,49,53,44,37,41,35,38,54,33
2007-02-11,68,70,64,69,82,59,62,73,58,54,56,50,50,54,42,59,61,55,53,55,50,51,53,46,58,60,55,56,59,49,45,54,36,58,62,53,52,58,38,62,65,55
2007-02-12,76,83,69,70,86,59,87,95,80,61,69,55,60,67,54,62,69,58,60,67,54,60,66,54,62,69,57,58,64,55,58,64,52,63,68,58,59,62,57,61,65,59
2007-02-13,83,84,80,91,94,87,92,95,84,67,70,63,66,68,64,66,69,62,67,68,64,66,69,62,69,71,66,64,66,60,62,64,60,66,69,61,60,63,55,65,67,60
2007-02-14,76,79,71,88,90,87,79,82,74,59,63,54,59,64,54,59,62,58,59,64,57,58,61,56,60,65,56,57,60,55,57,60,52,57,60,55,52,54,51,58,60,57
2007-02-15,75,77,72,81,95,71,76,78,74,59,65,54,58,63,55,63,65,60,62,64,58,58,60,56,62,65,57,60,62,57,55,59,51,60,63,56,59,64,52,61,63,59
2007-02-16,76,80,74,70,75,67,72,74,70,64,66,63,62,66,60,59,62,58,63,65,62,59,60,57,65,69,62,60,62,59,57,60,56,59,62,57,59,63,56,59,60,57
2007-02-17,74,80,61,68,77,54,65,72,53,58,66,43,62,68,53,52,57,45,57,65,43,55,59,45,62,69,49,59,63,51,56,58,52,53,56,47,46,56,33,52,57,43
2007-02-18,57,60,55,46,52,44,47,52,44,34,41,30,41,52,28,46,48,42,36,41,33,35,44,28,38,46,31,41,51,31,34,51,22,42,46,36,28,32,25,37,42,33
2007-02-19,61,64,56,55,59,48,48,53,45,45,54,33,32,40,26,50,54,41,41,47,33,35,40,28,44,51,31,37,42,31,28,33,22,50,54,37,49,56,31,49,55,36
2007-02-20,54,61,51,45,56,39,49,52,46,40,52,32,35,40,31,36,52,29,34,45,29,29,37,25,35,49,30,30,39,26,32,35,29,36,52,29,38,53,30,34,52,26
2007-02-21,58,59,54,50,53,44,58,63,52,41,43,35,41,43,36,41,45,34,39,42,33,37,40,28,40,44,34,34,37,29,35,38,30,41,44,34,40,45,34,35,38,29
2007-02-22,54,58,50,53,56,51,61,62,58,35,42,31,36,41,34,35,43,31,34,42,31,30,39,23,39,43,37,31,36,28,30,35,25,37,44,32,37,45,26,32,38,27
2007-02-23,52,57,50,62,65,57,60,68,57,37,40,32,36,40,20,32,33,31,36,38,33,32,43,26,41,43,38,31,33,26,33,46,24,36,37,34,30,35,26,31,33,29
2007-02-24,64,74,57,59,65,54,73,76,68,50,61,35,48,60,35,49,60,34,47,60,34,48,58,34,49,61,37,44,57,28,49,56,40,48,59,34,46,57,32,44,55,30
2007-02-25,71,79,57,67,70,64,72,76,68,58,65,43,56,64,40,57,63,44,57,65,41,56,63,38,58,65,45,53,61,35,49,56,36,56,62,45,56,61,45,54,60,39
2007-02-26,55,61,50,57,63,53,71,74,68,39,47,28,36,45,30,43,51,37,37,45,31,38,45,28,43,50,38,33,42,25,41,47,36,44,50,41,38,45,30,36,44,29
2007-02-27,61,63,59,62,64,59,77,80,74,47,50,42,44,48,40,50,52,46,45,48,41,45,48,40,51,53,47,42,46,38,48,52,45,50,52,46,47,50,44,45,49,42
2007-02-28,58,59,57,58,63,53,77,80,72,40,42,39,38,40,38,42,45,41,39,41,38,37,40,36,43,46,42,35,38,33,43,46,40,42,46,41,39,43,37,37,42,35
2007-03-01,58,59,56,54,57,52,69,71,68,39,41,38,38,40,37,41,42,40,39,43,37,39,40,38,42,47,40,32,34,32,38,39,37,40,41,39,35,36,35,34,35,33
2007-03-02,64,67,60,60,66,55,72,79,69,46,52,41,48,54,41,45,50,42,50,52,43,44,59,39,51,53,47,40,46,34,51,70,40,43,45,41,37,39,35,40,48,35
2007-03-03,65,69,61,71,80,58,76,79,67,49,52,40,51,55,42,45,50,37,48,52,41,44,48,37,51,54,47,45,50,36,46,53,36,40,43,38,32,38,24,49,52,44
2007-03-04,59,61,58,67,71,61,63,67,57,40,42,39,39,42,37,37,38,35,41,42,39,35,36,32,46,48,43,31,35,29,32,35,30,40,41,39,25,30,23,41,44,36
2007-03-05,58,60,57,72,78,65,60,67,57,41,43,38,41,43,37,41,47,37,43,46,40,33,37,32,47,52,43,36,37,34,32,39,27,41,44,38,31,37,28,37,44,34
2007-03-06,61,62,59,64,72,61,66,69,60,47,53,39,45,51,38,53,55,48,44,50,39,44,51,35,49,52,45,43,48,36,43,51,34,48,52,43,46,52,37,50,56,44
2007-03-07,55,62,47,60,64,56,52,58,46,43,53,30,37,50,27,36,53,22,37,50,28,36,51,24,41,52,31,36,47,30,37,51,22,41,52,28,41,52,27,45,55,31
2007-03-08,47,51,45,51,55,48,47,49,45,28,30,27,28,29,27,23,30,21,29,31,28,26,30,24,31,34,30,32,36,30,23,26,21,30,34,27,31,43,26,38,51,31
2007-03-09,54,56,51,50,51,49,49,51,48,33,34,31,31,33,29,32,33,30,32,34,31,33,36,30,36,39,34,37,39,31,27,31,26,34,35,34,48,50,43,53,54,51
2007-03-10,60,64,56,57,65,51,58,63,52,41,51,33,41,51,33,40,52,33,40,48,35,38,46,32,45,53,39,37,46,31,35,43,26,43,59,35,60,94,40,57,69,54
2007-03-11,80,88,64,79,87,66,76,83,63,74,81,53,60,65,51,76,83,56,63,69,48,61,67,47,68,75,53,68,75,48,43,48,38,83,91,63,95,113,63,87,95,73
2007-03-12,67,80,60,63,79,56,65,75,61,59,75,52,57,61,52,55,71,46,57,68,50,53,61,43,58,68,52,53,68,40,49,55,41,55,72,47,53,59,51,54,69,47
2007-03-13,69,72,67,64,67,62,66,69,64,58,59,57,58,59,57,55,57,54,57,60,56,55,56,55,58,59,57,55,56,54,54,55,53,53,55,52,52,53,51,58,60,55
2007-03-14,68,72,64,65,67,64,68,69,68,55,59,52,54,59,51,50,54,46,55,60,50,49,55,43,55,59,52,50,54,45,44,53,36,49,52,47,51,53,46,51,54,49
2007-03-15,63,64,61,65,67,63,67,70,60,50,52,41,50,51,45,46,50,45,47,50,41,42,43,37,54,57,48,43,45,41,37,39,35,47,48,45,39,45,31,44,48,40
2007-03-16,59,61,58,59,63,55,53,59,51,30,40,24,40,45,37,48,50,43,38,40,36,33,36,30,42,47,39,36,40,35,30,38,22,47,49,45,26,30,23,36,39,34
2007-03-17,57,60,53,51,55,49,47,53,41,30,34,25,34,37,32,38,42,34,34,36,32,29,35,25,39,41,37,30,34,28,33,42,22,37,47,33,26,29,23,31,35,29
2007-03-18,54,59,51,52,54,49,46,52,39,37,45,30,36,43,31,39,46,32,38,42,35,35,44,24,42,48,40,33,41,28,37,53,26,38,46,31,35,42,28,36,45,28
2007-03-19,58,61,55,61,76,53,52,54,48,44,50,39,41,49,35,44,51,39,40,48,31,39,47,27,44,52,39,40,48,34,37,46,21,44,51,37,43,48,39,50,52,47
2007-03-20,57,63,54,80,82,78,66,71,62,42,49,40,34,36,32,39,43,37,36,41,23,31,50,25,40,46,37,35,39,33,30,46,19,39,47,36,40,47,35,44,51,38
2007-03-21,65,66,63,75,81,63,77,82,70,52,54,47,44,47,37,50,52,43,45,52,42,48,50,39,50,52,46,47,50,40,45,48,39,52,54,48,51,53,48,54,57,51
2007-03-22,64,67,63,68,71,64,75,77,74,50,53,48,49,55,46,50,51,48,49,57,42,51,54,49,56,59,51,46,52,42,47,53,43,51,53,49,49,49,49,51,53,50
2007-03-23,64,67,62,66,70,61,76,77,75,51,53,47,51,55,44,51,52,49,54,57,48,51,54,46,54,59,50,50,53,43,52,54,45,51,51,49,45,49,35,52,54,49
2007-03-24,65,67,62,68,73,62,74,77,65,50,53,47,47,51,44,50,52,48,50,53,47,49,52,45,52,55,49,44,50,41,44,48,41,50,53,47,39,42,38,44,47,43
2007-03-25,59,66,53,63,73,47,51,63,42,36,50,25,43,51,33,49,52,44,45,53,34,44,51,33,41,52,30,46,51,34,42,51,29,48,53,38,34,38,25,41,46,32
2007-03-26,58,62,52,52,60,44,51,59,42,37,42,28,42,54,30,43,49,35,43,54,31,40,47,31,42,53,29,41,54,29,48,60,27,41,48,35,24,25,22,31,35,28
2007-03-27,55,62,49,53,61,44,49,57,42,28,39,18,37,54,21,49,51,45,43,54,31,33,42,24,40,52,27,43,54,31,53,63,39,41,48,30,25,42,15,28,34,22
2007-03-28,56,60,53,56,68,49,52,70,44,34,42,27,32,41,24,46,49,43,37,40,34,36,51,28,41,50,34,34,37,33,40,51,30,45,50,43,51,55,42,38,42,33
2007-03-29,64,66,60,78,85,70,77,82,68,48,52,41,45,50,38,49,53,44,51,54,41,44,49,38,55,60,48,40,44,34,41,45,36,51,54,44,42,47,36,47,51,40
2007-03-30,55,60,53,60,71,51,49,66,41,36,45,31,31,38,21,40,49,36,42,52,35,30,39,26,34,47,27,35,41,28,34,44,23,38,48,33,26,37,21,31,44,24
2007-03-31,55,55,54,40,50,36,45,48,42,24,29,20,20,21,19,48,52,39,34,46,32,24,26,23,30,35,26,28,30,27,21,23,19,33,34,32,21,22,20,23,24,22
2007-04-01,56,57,52,41,44,37,49,50,48,22,25,21,23,24,21,39,50,35,32,34,30,23,24,22,29,31,28,29,30,26,21,26,19,37,38,34,21,22,20,25,26,24
2007-04-02,54,57,51,46,67,37,50,56,47,30,41,22,28,39,23,41,45,37,35,41,31,29,35,24,35,43,29,29,38,24,23,38,19,38,42,34,27,35,22,30,36,26
2007-04-03,53,56,51,64,68,56,53,56,48,36,40,31,32,38,26,35,41,31,35,41,29,30,34,27,38,43,33,37,39,33,27,35,19,36,41,30,33,37,30,36,42,34
2007-04-04,51,53,48,56,58,52,49,51,48,33,36,31,27,33,25,34,43,29,32,37,29,35,37,34,35,38,33,36,40,34,36,39,33,32,36,29,38,41,36,46,54,42
2007-04-05,55,61,50,54,58,51,57,59,52,49,56,37,47,53,34,54,57,45,49,55,38,47,53,38,49,55,39,48,53,40,45,50,39,49,55,37,52,60,42,60,64,54
2007-04-06,57,61,55,61,67,56,56,59,53,51,56,48,45,53,40,47,55,40,47,54,42,45,53,38,47,54,41,45,52,40,32,44,25,47,54,41,57,60,56,55,62,50
2007-04-07,51,56,44,55,66,44,52,59,47,41,49,32,38,44,32,36,41,29,40,46,33,34,39,27,41,45,36,40,44,35,27,31,24,38,43,33,54,58,50,49,51,41
2007-04-08,51,56,47,50,57,44,49,54,47,41,52,32,36,46,31,47,55,36,38,49,33,47,55,34,42,51,37,52,57,42,45,54,32,48,55,37,62,69,56,59,65,52
2007-04-09,61,65,56,57,59,55,67,84,53,54,56,52,52,55,46,56,57,53,54,56,48,56,65,54,54,56,50,54,55,52,58,66,54,56,57,54,60,64,54,59,62,54
2007-04-10,67,70,65,67,83,58,85,87,80,57,61,55,57,58,55,58,60,56,59,60,56,59,62,55,58,59,55,56,59,52,58,64,55,58,58,55,57,58,54,57,60,54
2007-04-11,63,67,60,82,87,77,74,79,69,49,54,45,49,55,44,52,56,50,51,58,40,54,60,50,53,58,49,55,60,49,55,68,49,53,57,49,55,58,53,56,59,55
2007-04-12,72,81,63,83,93,78,94,105,80,57,61,51,58,65,51,57,60,53,49,58,40,60,73,53,58,66,52,56,59,51,66,86,57,58,61,53,57,59,53,62,64,58
2007-04-13,89,97,81,113,132,94,103,105,102,67,81,62,68,70,66,73,91,60,71,86,59,69,86,61,76,86,67,61,69,58,61,66,59,68,79,59,60,63,57,71,80,64
2007-04-14,97,101,90,132,141,112,105,109,99,93,100,82,72,79,57,89,94,77,96,102,87,88,97,75,96,105,84,79,86,70,59,61,57,81,87,70,62,65,55,68,76,61
2007-04-15,80,89,71,95,111,79,82,97,69,63,80,47,52,56,49,64,76,55,75,86,66,60,73,52,67,83,54,61,76,50,52,56,49,58,68,51,48,54,44,55,60,52
2007-04-16,62,70,58,68,77,65,58,68,53,47,71,36,45,58,37,56,58,54,54,65,49,52,53,52,47,53,40,52,55,50,48,49,46,52,52,49,45,47,41,52,53,48
2007-04-17,57,58,55,56,65,46,53,55,49,47,58,27,36,42,29,51,54,49,40,52,30,37,42,33,36,39,32,42,49,32,38,46,30,48,50,45,33,40,27,41,47,34
2007-04-18,54,61,50,69,104,50,63,89,52,32,48,22,29,38,26,43,54,36,35,46,30,40,64,24,38,64,27,33,51,26,41,53,30,41,58,33,33,45,27,37,48,30
2007-04-19,66,69,62,96,104,78,97,103,90,43,44,36,41,43,37,55,58,44,47,49,42,46,57,35,56,60,49,44,49,37,42,54,33,50,53,46,45,57,36,46,50,42
2007-04-20,64,66,62,80,83,76,89,92,83,43,50,35,45,51,40,46,50,41,47,52,42,43,49,38,51,53,49,39,42,35,42,58,36,49,51,46,41,44,37,43,45,40
2007-04-21,62,64,61,67,75,59,73,82,64,45,50,36,49,51,45,46,50,42,50,52,46,42,45,38,51,53,47,39,42,36,44,46,39,47,50,44,34,41,29,39,44,35
2007-04-22,58,61,54,48,57,38,56,63,49,28,35,23,37,45,27,39,41,37,38,45,33,32,38,28,39,46,31,31,35,28,35,39,31,41,44,35,24,28,21,33,35,29
2007-04-23,51,53,47,46,63,34,54,65,47,26,35,21,29,39,21,41,43,39,37,49,30,30,39,25,31,41,27,32,42,24,28,30,23,38,47,33,22,28,19,29,36,24
2007-04-24,51,52,50,68,74,60,66,69,62,39,43,36,44,46,39,41,43,39,47,52,42,42,43,39,45,49,42,44,47,42,27,40,20,49,50,47,25,30,19,39,41,37
2007-04-25,52,54,50,76,81,69,68,72,66,48,54,43,47,51,42,40,42,34,47,50,44,39,43,34,48,52,44,46,49,41,28,36,20,47,50,41,38,42,28,42,46,40
2007-04-26,54,58,52,67,78,63,70,83,65,37,43,33,38,46,35,38,44,34,40,45,37,44,65,34,43,48,40,39,41,34,52,72,37,41,45,39,39,47,33,47,51,40
2007-04-27,64,70,59,88,93,81,96,103,86,54,59,45,56,62,48,53,57,45,57,63,48,56,66,50,56,62,49,50,55,39,61,72,55,53,57,46,45,51,34,49,55,41
2007-04-28,68,76,60,90,95,78,100,102,95,61,61,58,63,64,59,58,60,56,64,65,59,57,58,55,64,65,61,55,57,54,61,62,56,57,59,54,50,54,48,55,56,55
2007-04-29,63,73,57,62,76,52,85,94,76,47,58,39,47,58,39,51,59,43,47,58,39,48,57,39,52,61,44,46,55,37,48,56,41,54,60,46,49,54,40,50,55,42
2007-04-30,61,71,58,67,98,52,81,99,75,47,63,40,48,67,39,49,62,43,49,75,39,48,69,39,54,77,45,45,62,37,44,52,39,51,65,45,45,56,39,49,64,41
2007-05-01,86,91,73,123,132,102,125,141,101,85,96,65,80,88,69,71,77,63,95,105,79,72,89,62,98,113,79,76,89,62,61,73,53,84,95,67,67,102,56,74,89,65
2007-05-02,82,88,79,117,122,112,118,129,111,84,90,79,67,71,63,70,73,68,,,,60,69,53,81,89,73,56,62,53,54,65,50,69,77,64,64,84,59,60,67,56
2007-05-03,75,80,65,106,117,94,103,111,94,69,82,55,55,63,50,65,71,54,,,,56,62,46,79,87,72,47,54,41,53,66,46,69,74,60,56,59,47,62,66,58
2007-05-04,65,66,64,88,93,83,85,94,75,54,55,51,54,57,50,53,55,52,,,,51,52,46,63,72,53,44,48,40,47,50,42,58,62,54,45,48,39,54,58,49
2007-05-05,57,64,51,73,82,66,69,74,66,48,54,40,42,52,37,50,53,45,47,53,45,44,52,40,48,53,43,42,46,40,33,42,27,52,56,49,37,41,33,47,49,45
2007-05-06,57,64,52,79,93,68,77,85,70,43,55,38,42,49,37,49,54,45,58,61,54,48,54,43,47,54,43,49,52,46,44,52,31,52,53,50,46,56,33,49,57,42
2007-05-07,72,77,64,104,108,94,102,113,88,66,70,56,57,63,50,58,61,54,68,74,58,57,67,53,68,77,56,57,60,53,60,84,51,57,59,53,59,60,56,63,66,57
2007-05-08,72,74,70,89,105,75,99,111,89,61,63,59,60,61,59,59,61,58,62,68,61,59,63,58,63,71,61,58,60,56,58,59,57,58,59,57,57,60,55,57,63,54
2007-05-09,74,75,70,67,74,60,87,89,80,61,62,57,61,62,57,60,61,56,62,64,58,58,60,54,61,63,57,58,60,55,60,62,57,60,61,57,57,59,55,57,58,54
2007-05-10,67,70,65,60,63,58,81,86,78,53,56,51,54,57,53,53,55,52,55,58,53,52,62,49,53,56,52,51,54,49,56,70,53,53,56,51,51,54,49,49,54,44
2007-05-11,66,70,65,63,65,61,86,89,82,54,57,52,55,57,54,56,59,53,56,58,54,54,71,51,55,58,52,53,57,50,58,76,55,54,57,52,53,55,50,52,68,47
2007-05-12,71,72,70,66,69,62,81,84,74,58,58,57,58,59,56,60,62,58,59,60,58,56,57,56,58,58,57,56,56,55,58,59,56,58,60,57,56,57,54,56,59,53
2007-05-13,70,70,69,68,69,65,73,80,70,58,60,57,55,57,54,62,63,61,58,59,57,56,58,55,59,62,57,56,58,54,55,62,53,61,62,60,58,59,56,59,61,58
2007-05-14,74,76,71,69,79,66,83,85,81,62,63,60,61,62,58,65,67,63,63,65,59,61,63,58,64,65,62,61,62,59,60,62,56,64,66,62,60,61,59,62,62,61
2007-05-15,70,76,63,75,85,56,75,81,65,58,63,50,54,61,43,62,65,56,59,65,50,57,63,50,59,65,52,56,61,48,53,61,45,61,65,54,53,61,40,58,63,50
2007-05-16,49,62,44,52,54,51,59,64,54,40,49,37,38,42,36,54,56,53,46,49,43,44,49,41,48,52,44,39,47,35,41,44,38,50,54,46,34,38,31,42,49,38
2007-05-17,71,96,44,72,103,53,75,109,54,57,93,37,54,64,40,60,73,53,65,92,50,64,121,50,59,82,46,56,76,42,69,123,43,60,74,51,62,115,36,68,127,44
2007-05-18,77,96,48,78,103,42,83,109,48,48,67,20,53,63,34,64,74,40,71,92,40,56,68,30,51,69,25,65,73,46,63,71,51,61,74,36,55,70,25,61,76,34
2007-05-19,55,60,47,56,67,43,61,73,48,32,38,21,39,46,31,44,47,41,44,47,40,28,28,27,37,43,26,38,43,35,38,50,27,42,48,35,37,44,25,42,57,34
2007-05-20,51,60,41,58,67,50,73,76,70,25,37,16,36,43,32,36,41,31,35,43,31,31,32,31,31,40,25,36,38,34,25,27,23,39,47,33,32,42,25,34,41,28
2007-05-21,41,57,39,50,56,46,70,73,69,24,34,15,33,37,30,31,35,29,32,36,30,29,36,24,30,38,25,35,37,32,,,,34,37,32,23,31,15,27,30,26
2007-05-22,53,56,51,58,60,54,70,74,59,30,32,28,39,40,37,36,37,34,36,37,33,27,31,24,43,47,38,33,36,29,24,35,19,38,40,36,25,28,19,34,36,30
2007-05-23,57,59,54,50,53,46,54,58,51,29,32,27,34,38,26,36,43,32,34,35,33,31,37,30,38,40,35,31,32,29,22,26,15,37,39,36,24,28,18,32,34,30
2007-05-24,59,61,55,45,49,39,49,52,46,31,32,29,27,28,26,47,50,44,36,37,34,34,36,32,36,38,35,31,33,29,30,32,27,42,44,40,29,29,28,33,35,30
2007-05-25,51,54,39,38,40,36,46,47,45,29,31,28,26,29,24,45,47,43,33,34,32,30,33,28,33,35,31,31,32,31,29,30,28,40,41,39,28,29,26,32,34,30
2007-05-26,42,44,39,40,42,38,48,50,45,27,30,26,27,28,25,45,50,43,32,34,30,29,33,28,31,33,30,33,34,31,27,29,26,40,45,38,25,26,24,29,30,28
2007-05-27,46,47,44,48,54,42,52,56,50,23,26,20,27,32,20,40,47,36,33,38,30,32,35,29,35,40,31,36,39,33,23,29,17,42,49,39,23,26,19,28,31,26
2007-05-28,47,48,44,54,56,53,56,58,51,28,33,22,22,27,20,37,40,35,40,43,38,36,37,35,44,46,41,40,41,39,22,38,17,39,40,37,26,28,23,32,34,29
2007-05-29,51,54,43,50,55,45,47,51,45,29,33,26,31,36,21,38,40,35,32,37,27,32,34,30,34,40,31,35,39,31,22,27,10,38,40,36,21,25,20,28,32,25
2007-05-30,53,54,52,43,45,39,37,48,27,23,25,20,26,28,24,32,34,28,26,27,25,25,30,17,29,30,28,30,32,26,15,26,8,32,37,29,17,19,15,27,29,25
2007-05-31,53,53,52,40,41,38,44,46,28,20,22,19,26,29,25,28,29,27,28,31,25,19,25,16,27,28,25,26,28,25,16,30,6,28,29,28,16,17,14,28,29,26
2007-06-01,49,52,40,36,40,31,45,46,41,17,19,16,21,26,17,34,37,30,34,35,31,25,26,23,27,28,25,29,31,26,19,36,18,30,31,29,17,20,16,26,27,23
2007-06-02,42,47,40,32,36,30,38,41,35,16,17,15,16,17,15,36,38,35,31,34,30,22,24,21,25,26,24,23,25,22,19,21,18,29,30,28,19,20,18,21,23,19
2007-06-03,45,48,43,35,38,33,31,36,25,17,18,16,17,18,16,38,42,34,31,32,30,21,23,19,25,27,23,25,26,22,25,26,22,29,31,27,20,20,19,21,23,19
2007-06-04,42,44,38,34,35,32,27,35,25,16,16,15,18,18,17,38,39,36,31,31,30,20,20,19,24,24,23,21,22,20,22,25,20,27,27,26,18,19,17,20,20,19
2007-06-05,37,38,36,33,35,31,37,41,27,15,15,14,16,17,14,34,36,32,29,30,25,19,19,18,23,23,22,21,22,21,20,21,20,26,27,25,16,17,16,20,20,19
2007-06-06,38,41,37,36,37,35,41,42,39,14,15,14,21,26,17,39,48,34,32,33,29,21,24,19,24,25,23,23,25,21,17,24,15,25,27,25,16,16,15,20,23,19
2007-06-07,46,48,42,41,45,36,45,47,42,17,20,15,19,23,17,49,51,43,34,35,32,24,24,23,26,28,24,26,27,25,19,21,18,28,29,27,17,19,15,22,23,21
2007-06-08,49,50,47,45,47,43,47,48,45,21,24,20,20,26,18,47,50,45,34,35,33,25,26,24,29,31,28,27,30,26,24,27,11,30,32,28,21,21,20,23,29,21
2007-06-09,51,51,50,45,48,43,46,48,43,25,26,23,21,23,19,46,48,45,34,35,31,27,28,25,31,32,30,30,32,27,21,24,10,33,35,32,21,23,20,29,30,26
2007-06-10,44,50,38,40,43,37,51,55,45,20,29,17,22,28,18,36,45,31,33,38,30,26,30,22,30,34,26,30,32,27,19,24,13,33,35,31,19,22,17,27,29,23
2007-06-11,45,55,37,48,56,41,57,62,55,23,31,19,32,35,28,39,51,32,44,47,39,37,41,31,39,43,35,33,39,31,21,36,13,38,43,35,26,35,18,33,36,29
2007-06-12,60,61,56,63,69,57,74,80,62,39,47,32,37,41,33,54,55,51,52,55,47,49,53,42,49,52,44,46,50,40,41,46,32,50,52,44,39,42,33,46,51,36
2007-06-13,52,59,40,50,64,37,61,76,49,28,34,21,24,35,16,47,53,42,39,49,31,34,48,21,36,48,27,31,43,21,26,39,19,39,50,29,23,35,17,31,45,21
2007-06-14,34,39,31,42,50,37,54,59,49,29,36,21,20,26,15,39,42,36,38,46,31,25,32,20,29,36,25,27,33,21,16,20,12,31,37,28,18,24,14,21,26,18
2007-06-15,44,53,36,63,80,50,67,80,59,37,54,24,39,52,27,43,51,39,50,57,46,38,49,32,47,64,36,35,41,31,28,61,12,45,59,36,36,49,22,39,51,27
2007-06-16,50,52,46,66,78,45,71,81,53,43,53,27,40,49,25,49,50,45,45,56,20,43,49,33,52,64,36,37,42,28,25,30,17,51,60,34,35,46,21,40,50,26
2007-06-17,42,46,38,37,45,31,45,52,39,22,29,17,22,25,21,47,51,41,18,20,14,28,35,22,29,39,23,22,27,16,15,17,14,38,42,34,16,20,13,23,26,21